Regional Weather Roundup
Issued by NWS

Home | Current Version | Previous Version | Text Only | Print | Product List | Glossary On
Versions: 1 2 3 4 5 6 7 8 9 10 11 12 13 14 15 16 17 18 19 20 21 22 23 24 25 26 27
000
ASUS44 KJAN 282210
RWRMS

MISSISSIPPI HOURLY WEATHER ROUNDUP
NATIONAL WEATHER SERVICE JACKSON MS
500 PM CDT SUN MAY 28 2017

NOTE: "FAIR: INDICATES FEW OR NO CLOUDS BELOW 12,000 FEET WITH NO
SIGNIFICANT WEATHER AND/OR OBSTRUCTIONS TO VISIBILITY.

MSZ001>002-007>008-010>013-018>021-025>028-034>036-282300-
NORTHWEST MISSISSIPPI

CITY           SKY/WX    TMP DP  RH WIND       PRES   REMARKS
BATESVILLE     MOCLDY    79  66  64 W6        29.96S
CLARKSDALE       N/A     81  72  74 MISG      29.94F
CLEVELAND      MOCLDY    80  71  74 NW6       29.95S
GREENWOOD      MOSUNNY   80  67  64 W8        29.96R
GREENVILLE       N/A    N/A N/A N/A MISG        N/A
OLIVE BRANCH   CLOUDY   N/A N/A N/A W7        29.92R
OXFORD         PTSUNNY   77  64  65 W8        29.97S
TUNICA         PTCLDY    77  68  73 W8        29.94F
WINONA         FAIR      80  67  64 W7        29.96R
$$

MSZ003>006-009-014>017-022>024-029>033-037>039-282300-
NORTHEAST MISSISSIPPI

CITY           SKY/WX    TMP DP  RH WIND       PRES   REMARKS
COLUMBUS AFB   MOSUNNY   84  67  57 W12       29.93S
CORINTH        MOCLDY    81  64  57 W10       29.93R
GOLDN TRIANGLE SUNNY     84  64  51 NW9       29.90
STARKVILLE     FAIR      82  64  54 W6        29.96R
TUPELO         PTSUNNY   83  63  50 VRB7      29.94R
$$

MSZ040-058-282300-
CENTRAL MISSISSIPPI

CITY           SKY/WX    TMP DP  RH WIND       PRES   REMARKS
JACKSON INTL   PTSUNNY   82  67  60 NW3       29.95R
JACKSON HAWKNS PTSUNNY   82  68  62 CALM      29.94R
MADISON        FAIR      81  68  65 CALM      29.95S
MERIDIAN KEY   CLOUDY    82  71  69 N6        29.93R
MERIDIAN NAS   CLOUDY    83  66  56 NW8       29.94R
VICKSBURG VKS  CLEAR     77  70  78 N5        29.91S
$$

MSZ059>079-282300-
SOUTH MISSISSIPPI

CITY           SKY/WX    TMP DP  RH WIND       PRES   REMARKS
COLUMBIA       FAIR      86  70  58 S10       29.97F HX  90
HATTIESBURG    MOSUNNY   84  67  56 S9        29.95S
LAUREL         FAIR      86  68  54 S12       29.94R
MCCOMB         MOSUNNY   83  66  56 S8        29.95F
NATCHEZ        MOSUNNY   83  70  64 S9        29.93F
PINE BELT      CLOUDY    84  68  58 S9        29.97S
$$

MSZ080>082-282300-
COASTAL MISSISSIPPI

CITY           SKY/WX    TMP DP  RH WIND       PRES   REMARKS
BILOXI         MOSUNNY   83  73  71 S3        29.96F
PASCAGOULA     CLOUDY    84  69  60 CALM      29.97F
GULFPORT       MOSUNNY   84  73  69 SE8       29.96F HX  90
$$

LAZ007>009-015>016-023>026-282300-
NORTHEAST LOUISIANA

CITY           SKY/WX    TMP DP  RH WIND       PRES   REMARKS
BASTROP        MOCLDY    85  70  60 SW7       29.93F
TALLULAH/VBURG CLOUDY    80  70  71 NW3       29.93F
VIDALIA        FAIR      81  72  73 S10       29.91F
$$




USA.gov is the U.S. government's official web portal to all federal, state and local government web resources and services.